Stündliche Wetter Holmy

Heute, 25 Juni, Freitag

Zeit Temperatur Niederschläge Wind Luftdruck Luftfeuchtigkeit
00:00 +21°C° 0.1 mm 3 m/S 750 mmHg 84%
01:00 +21°C° 0.1 mm 2 m/S 750 mmHg 86%
02:00 +21°C° 0.1 mm 2 m/S 750 mmHg 87%
03:00 +21°C° 0 mm 2 m/S 750 mmHg 88%
04:00 +21°C° 0 mm 2 m/S 750 mmHg 89%
05:00 +21°C° 0 mm 2 m/S 749 mmHg 89%
06:00 +24°C° 0 mm 2 m/S 749 mmHg 83%
07:00 +26°C° 0 mm 2 m/S 749 mmHg 76%
08:00 +28°C° 0 mm 2 m/S 749 mmHg 70%
09:00 +30°C° 0 mm 2 m/S 749 mmHg 62%
10:00 +31°C° 0 mm 3 m/S 749 mmHg 54%
11:00 +34°C° 0 mm 3 m/S 749 mmHg 46%
12:00 +35°C° 0 mm 3 m/S 749 mmHg 44%
13:00 +35°C° 0 mm 3 m/S 749 mmHg 41%
14:00 +36°C° 0 mm 3 m/S 749 mmHg 38%
15:00 +35°C° 0 mm 3 m/S 748 mmHg 41%
16:00 +35°C° 0 mm 3 m/S 748 mmHg 44%
17:00 +35°C° 0 mm 2 m/S 748 mmHg 47%
18:00 +32°C° 0 mm 2 m/S 748 mmHg 55%
19:00 +30°C° 0 mm 2 m/S 748 mmHg 63%
20:00 +27°C° 0 mm 2 m/S 748 mmHg 72%
21:00 +27°C° 0.1 mm 2 m/S 748 mmHg 73%
22:00 +26°C° 0.1 mm 3 m/S 748 mmHg 74%
23:00 +25°C° 0.1 mm 3 m/S 748 mmHg 75%

Morgen, 26 Juni, Samstag

Zeit Temperatur Niederschläge Wind Luftdruck Luftfeuchtigkeit
00:00 +24°C° 0.5 mm 2 m/S 748 mmHg 79%
01:00 +23°C° 0.5 mm 1 m/S 748 mmHg 84%
02:00 +22°C° 0.5 mm 1 m/S 747 mmHg 88%
03:00 +22°C° 0 mm 1 m/S 747 mmHg 87%
04:00 +23°C° 0 mm 1 m/S 747 mmHg 86%
05:00 +23°C° 0 mm 1 m/S 748 mmHg 86%
06:00 +24°C° 0 mm 1 m/S 748 mmHg 80%
07:00 +26°C° 0 mm 2 m/S 748 mmHg 75%
08:00 +27°C° 0 mm 2 m/S 748 mmHg 69%
09:00 +28°C° 0 mm 2 m/S 748 mmHg 64%
10:00 +30°C° 0 mm 1 m/S 748 mmHg 59%
11:00 +31°C° 0 mm 1 m/S 748 mmHg 54%
12:00 +32°C° 0 mm 1 m/S 748 mmHg 53%
13:00 +32°C° 0 mm 1 m/S 748 mmHg 51%
14:00 +32°C° 0 mm 2 m/S 748 mmHg 50%
15:00 +30°C° 2.7 mm 3 m/S 748 mmHg 60%
16:00 +28°C° 2.7 mm 5 m/S 748 mmHg 70%
17:00 +24°C° 2.7 mm 6 m/S 747 mmHg 81%
18:00 +23°C° 2.8 mm 5 m/S 748 mmHg 85%
19:00 +21°C° 2.8 mm 3 m/S 748 mmHg 88%
20:00 +19°C° 2.8 mm 2 m/S 748 mmHg 92%
21:00 +19°C° 0.2 mm 2 m/S 748 mmHg 93%
22:00 +19°C° 0.2 mm 2 m/S 748 mmHg 93%
23:00 +19°C° 0.2 mm 2 m/S 748 mmHg 93%

übermorgen, 27 Juni, Sonntag

Zeit Temperatur Niederschläge Wind Luftdruck Luftfeuchtigkeit
00:00 +19°C° 0.1 mm 2 m/S 748 mmHg 94%
01:00 +19°C° 0.1 mm 2 m/S 747 mmHg 95%
02:00 +18°C° 0.1 mm 2 m/S 747 mmHg 96%
03:00 +19°C° 0.4 mm 2 m/S 747 mmHg 96%
04:00 +19°C° 0.4 mm 2 m/S 747 mmHg 96%
05:00 +19°C° 0.4 mm 2 m/S 747 mmHg 96%
06:00 +20°C° 0 mm 2 m/S 747 mmHg 95%
07:00 +21°C° 0 mm 3 m/S 747 mmHg 93%
08:00 +21°C° 0 mm 3 m/S 747 mmHg 91%
09:00 +22°C° 0 mm 4 m/S 747 mmHg 87%
10:00 +23°C° 0 mm 4 m/S 748 mmHg 82%
11:00 +25°C° 0 mm 4 m/S 748 mmHg 77%
12:00 +26°C° 0.2 mm 4 m/S 748 mmHg 74%
13:00 +26°C° 0.2 mm 4 m/S 748 mmHg 72%
14:00 +27°C° 0.2 mm 5 m/S 748 mmHg 70%
15:00 +26°C° 0.2 mm 5 m/S 747 mmHg 72%
16:00 +25°C° 0.2 mm 5 m/S 747 mmHg 75%
17:00 +25°C° 0.2 mm 5 m/S 747 mmHg 78%
18:00 +23°C° 0 mm 5 m/S 747 mmHg 81%
19:00 +22°C° 0 mm 4 m/S 747 mmHg 85%
20:00 +21°C° 0 mm 4 m/S 747 mmHg 88%
21:00 +20°C° 0 mm 4 m/S 747 mmHg 90%
22:00 +19°C° 0 mm 4 m/S 747 mmHg 92%
23:00 +19°C° 0 mm 4 m/S 748 mmHg 94%

28 Juni, Montag

Zeit Temperatur Niederschläge Wind Luftdruck Luftfeuchtigkeit
00:00 +19°C° 0 mm 4 m/S 748 mmHg 93%
01:00 +19°C° 0 mm 4 m/S 747 mmHg 92%
02:00 +18°C° 0 mm 4 m/S 747 mmHg 91%
03:00 +18°C° 0 mm 4 m/S 747 mmHg 91%
04:00 +18°C° 0 mm 4 m/S 747 mmHg 91%
05:00 +18°C° 0 mm 3 m/S 747 mmHg 91%
06:00 +20°C° 0 mm 4 m/S 748 mmHg 86%
07:00 +21°C° 0 mm 4 m/S 748 mmHg 80%
08:00 +22°C° 0 mm 5 m/S 748 mmHg 74%
09:00 +23°C° 0 mm 5 m/S 748 mmHg 70%
10:00 +25°C° 0 mm 5 m/S 748 mmHg 66%
11:00 +26°C° 0 mm 5 m/S 748 mmHg 61%
12:00 +26°C° 0.4 mm 5 m/S 748 mmHg 64%
13:00 +25°C° 0.4 mm 5 m/S 748 mmHg 67%
14:00 +25°C° 0.4 mm 5 m/S 748 mmHg 71%
15:00 +25°C° 0.4 mm 4 m/S 748 mmHg 71%
16:00 +25°C° 0.4 mm 4 m/S 748 mmHg 72%
17:00 +23°C° 0.4 mm 4 m/S 748 mmHg 73%
18:00 +22°C° 0.1 mm 3 m/S 748 mmHg 76%
19:00 +21°C° 0.1 mm 3 m/S 748 mmHg 80%
20:00 +20°C° 0.1 mm 3 m/S 748 mmHg 84%
21:00 +19°C° 0 mm 3 m/S 747 mmHg 85%
22:00 +18°C° 0 mm 3 m/S 747 mmHg 85%
23:00 +18°C° 0 mm 3 m/S 747 mmHg 86%

29 Juni, Dienstag

Zeit Temperatur Niederschläge Wind Luftdruck Luftfeuchtigkeit
00:00 +18°C° 0 mm 3 m/S 747 mmHg 87%
01:00 +17°C° 0 mm 3 m/S 747 mmHg 87%
02:00 +17°C° 0 mm 3 m/S 747 mmHg 88%
03:00 +17°C° 0 mm 3 m/S 747 mmHg 87%
04:00 +17°C° 0 mm 3 m/S 747 mmHg 86%
05:00 +18°C° 0 mm 4 m/S 747 mmHg 85%
06:00 +19°C° 0 mm 4 m/S 747 mmHg 81%
07:00 +20°C° 0 mm 4 m/S 747 mmHg 77%
08:00 +21°C° 0 mm 5 m/S 746 mmHg 72%
09:00 +22°C° 0.3 mm 5 m/S 746 mmHg 70%
10:00 +23°C° 0.3 mm 5 m/S 746 mmHg 67%
11:00 +25°C° 0.3 mm 5 m/S 746 mmHg 65%
12:00 +25°C° 0.4 mm 5 m/S 746 mmHg 64%
13:00 +25°C° 0.4 mm 5 m/S 746 mmHg 64%
14:00 +25°C° 0.4 mm 5 m/S 746 mmHg 64%
15:00 +23°C° 0.4 mm 4 m/S 746 mmHg 65%
16:00 +23°C° 0.4 mm 4 m/S 746 mmHg 67%
17:00 +23°C° 0.4 mm 4 m/S 746 mmHg 68%
18:00 +22°C° 0.2 mm 3 m/S 746 mmHg 72%
19:00 +20°C° 0.2 mm 3 m/S 746 mmHg 76%
20:00 +19°C° 0.2 mm 2 m/S 746 mmHg 80%
21:00 +19°C° 0.3 mm 2 m/S 746 mmHg 83%
22:00 +18°C° 0.3 mm 2 m/S 745 mmHg 86%
23:00 +18°C° 0.3 mm 2 m/S 745 mmHg 89%

30 Juni, Mittwoch

Zeit Temperatur Niederschläge Wind Luftdruck Luftfeuchtigkeit
00:00 +17°C° 0.4 mm 2 m/S 745 mmHg 91%
01:00 +17°C° 0.4 mm 2 m/S 745 mmHg 92%
02:00 +17°C° 0.4 mm 2 m/S 745 mmHg 93%
03:00 +17°C° 0 mm 3 m/S 745 mmHg 93%
04:00 +17°C° 0 mm 3 m/S 745 mmHg 92%
05:00 +17°C° 0 mm 4 m/S 744 mmHg 91%
06:00 +18°C° 0 mm 4 m/S 744 mmHg 89%
07:00 +19°C° 0 mm 4 m/S 744 mmHg 86%
08:00 +19°C° 0 mm 4 m/S 744 mmHg 84%
09:00 +20°C° 0 mm 4 m/S 744 mmHg 78%
10:00 +22°C° 0 mm 4 m/S 744 mmHg 72%
11:00 +23°C° 0 mm 5 m/S 744 mmHg 66%
12:00 +25°C° 0 mm 5 m/S 744 mmHg 63%
13:00 +25°C° 0 mm 5 m/S 744 mmHg 60%
14:00 +26°C° 0 mm 5 m/S 744 mmHg 57%
15:00 +26°C° 0 mm 4 m/S 744 mmHg 57%
16:00 +27°C° 0 mm 4 m/S 744 mmHg 57%
17:00 +27°C° 0 mm 3 m/S 744 mmHg 57%
18:00 +25°C° 0 mm 3 m/S 744 mmHg 64%
19:00 +24°C° 0 mm 2 m/S 744 mmHg 70%
20:00 +21°C° 0 mm 2 m/S 744 mmHg 76%
21:00 +20°C° 0 mm 2 m/S 744 mmHg 79%
22:00 +19°C° 0 mm 2 m/S 744 mmHg 82%
23:00 +18°C° 0 mm 2 m/S 744 mmHg 85%
Mehr zeigen

Wir brauchen deine Erlaubnis

Meteoprog und unser Service Anbieter werden persönliche Daten aufbewahren, so wie Cookies, Geräte Bezeichnung oder ähnliche Technologien von deinem Gerät und Prozess, so wie Persönliche Daten Inhalte und Werbungen, genauso wie social Media und den Verkehr zu analysieren.

  • Aufbewahrung und/oder Zugang zu deiner Geräte Informationen.

    Cookies, Geräte Bezeichnung oder andere Informationen, können aufbewahrt oder Zugang zu deinem Gerät erhalten, für den Grund, der oben angegeben wird.

  • Personalisierte Werbung und Inhalte, Messungen, Einblick in das Publikum und Produkt Entwicklung.

    Werbungen und Inhalte können personalisiert werden, basierend auf ein Profil. Mehr Daten können besser personalisierte Werbungen und Inhalte hinzufügen. Werbung und Inhalte können gezeigt und gemessen werden. Einblicke über das Publikum, welche die Werbung gesehen haben und den Inhalt, können abgeleitet werden. So wie Daten können genutzt werden, um es zu verbessern oder die Benutzer Erfahrung zu verbessern das System und die Software.

Wenn du “Ich stimme zu” klickst, erlaubst du uns, die Cookies zu benutzen die Geräte Bezeichnung, den Web oder ähnliche Technologien zu benutzen. Deine Settings, können in deinem Gerät bei deinem Browser geändert werden.

Für den bestimmten Zweck, berechtigten Interessen beruhen darauf, mehr als auf den Inhalt. Du kannst mehr darüber in unseren Privaten und Cookie Politik lesen.